Погода в Алексеевой

Россия / Брянская область     52°57′25″N   34°56′50″E
темп.,
°C
ветер,
м/с
пор.,
м/с
влажн.,
%
обл.,
%
осадки,
мм/ч
давл.,
гПа
погр.,
м
23 октября, сб
сб2300:00+6юз513703 0.0 1009421
03:00+6юз614665 0.0 1008552
06:00+5юз614695 0.0 1008387
09:00+5юз6146811 0.0 1009675
12:00+8зюз71062100 0.0 10101225
15:00+8зюз7116352 0.1 10101407
18:00+6з61273100 0.2 1012578
21:00+5з61165100 0.3 1014624
24 октября, вс
вс2400:00+6зюз61266100 0.0 1015804
03:00+5зюз61272100 0.0 1015658
06:00+5з61181100 0.0 1016895
09:00+5з61078100 0.1 1017920
12:00+5зсз797191 0.2 10191053
15:00+4сз7107786 0.4 1021990
18:00+2сз611736 0.0 1023546
21:00+1ссз511745 0.0 1026495
25 октября, пн
пн2500:00−1сз49875 0.0 1027258
03:00−2ссз38945 0.0 1029198
06:00−2ссз35945 0.0 1031128
09:000ссз23815 0.0 1032184
12:00+3зсз235812 0.0 1033740
15:00+5з34535 0.0 1031905
18:00+1зюз34725 0.0 103249
21:000юз36785 0.0 1032107
26 октября, вт
вт2600:00−1юз48785 0.0 1032159
03:00−1юз4976100 0.0 1031189
06:00−1юз4107651 0.0 1030211
09:00+1юз5126648 0.0 1030311
12:00+6юз6104999 0.0 1028549
15:00+7юз6115045 0.0 1026669
18:00+3ююз5126743 0.0 1026278
21:00+2ююз513735 0.0 1026298
27 октября, ср
ср2700:00+1юз513725 0.0 1025264
03:00+1ююз513720 0.0 1024249
06:000ююз513720 0.0 1023254
09:00+2юз615690 0.0 1022403
12:00+7юз812575 0.0 1020628
15:00+8зюз61161100 0.0 1019807
18:00+5зюз4989100 1.6 1020416
21:00+5з4993100 1.8 1021387